This demonstration page uses our WeatherBlox Daily Observations layout. Learn more.

Left ArrowRight Arrow

Hourly Observations for January 12, 2017

Temp ( °F °C ) Dew Point ( °F °C ) Humidity (%) Winds ( mph kmh ) Pressure ( in mb ) Visibility ( mi km ) Precip ( " mm )
12:58 am 00:58 Clear 13 -10.8 4 -15.7 68 68 NNW 8 13 30.06 1018 10 16 0.00 0.00
1:58 am 01:58 Mostly Cloudy 12 -11 6 -14.5 76 76 NNW 12 19 30.09 1019 10 16 0.00 0.00
2:01 am 02:01 Mostly Cloudy with Light Snow 12 -11 7 -14 79 79 NNW 9 15 30.12 1020 10 16 0.00 0.00
2:33 am 02:33 Cloudy 12 -11 7 -14 79 79 N 9 15 30.15 1021 10 16 0.00 0.00
2:51 am 02:51 Cloudy 12 -11 7 -14 79 79 N 12 19 30.15 1021 10 16 0.00 0.00
2:58 am 02:58 Cloudy 13 -10.7 6 -14.3 75 75 NNW 10 17 30.14 1021 10 16 0.00 0.03
3:06 am 03:06 Cloudy 12 -11 7 -14 79 79 N 12 19 30.15 1021 10 16 0.00 0.00
3:58 am 03:58 Cloudy 12 -11 7 -14 79 79 N 8 13 30.16 1021 10 16 0.00 0.00
4:58 am 04:58 Cloudy 13 -10.8 6 -14.4 75 75 N 8 13 30.17 1022 10 16 0.00 0.00
5:58 am 05:58 Cloudy 13 -10.8 6 -14.2 76 76 N 5 7 30.18 1022 10 16 0.00 0.00
6:58 am 06:58 Cloudy 13 -10.7 6 -14.4 74 74 NNW 7 11 30.23 1024 10 16 0.00 0.00
7:58 am 07:58 Cloudy 13 -10.5 6 -14.3 74 74 NW 9 15 30.27 1025 10 16 0.00 0.00
8:58 am 08:58 Partly Cloudy 13 -10.4 6 -14.2 74 74 NNW 7 11 30.31 1026 10 16 0.00 0.00
9:58 am 09:58 Sunny 16 -8.9 2 -16.4 55 55 NNW 12 19 30.37 1029 10 16 0.00 0.00
10:58 am 10:58 Cloudy 18 -7.6 2 -16.7 48 48 NW 9 15 30.41 1030 10 16 0.00 0.00
11:58 am 11:58 Mostly Cloudy 20 -6.4 -2 -19.1 36 36 NW 10 17 30.41 1030 10 16 0.00 0.00
12:58 pm 12:58 Cloudy 20 -6.4 -2 -19.1 36 36 NW 10 17 30.43 1030 10 16 0.00 0.00
1:58 pm 13:58 Mostly Sunny 22 -5.8 -1 -18.1 38 38 NNW 10 17 30.43 1030 10 16 0.00 0.00
2:58 pm 14:58 Mostly Sunny 22 -5.7 4 -15.8 45 45 NW 8 13 30.44 1031 10 16 0.00 0.00
3:58 pm 15:58 Mostly Sunny 22 -5.3 5 -14.8 48 48 WNW 5 7 30.48 1032 10 16 0.00 0.00
4:58 pm 16:58 Sunny 22 -5.7 7 -13.7 54 54 NNE 6 9 30.52 1034 10 16 0.00 0.00
5:58 pm 17:58 Clear 20 -6.7 7 -13.7 58 58 NE 6 9 30.52 1034 10 16 0.00 0.00
6:58 pm 18:58 Clear 17 -8.1 8 -13.4 66 66 Calm 30.57 1035 10 16 0.00 0.00
7:58 pm 19:58 Clear 17 -8.5 9 -12.6 73 73 Calm 30.60 1036 10 16 0.00 0.00
8:58 pm 20:58 Cloudy 18 -7.7 11 -11.8 73 73 Calm 30.61 1037 10 16 0.00 0.00
9:58 pm 21:58 Mostly Cloudy 18 -7.8 12 -10.9 79 79 NNE 5 7 30.60 1036 10 16 0.00 0.00
10:58 pm 22:58 Mostly Cloudy 20 -6.8 11 -11.5 70 70 N 6 9 30.62 1037 10 16 0.00 0.00
11:58 pm 23:58 Mostly Cloudy 19 -7 10 -12.1 67 67 NNE 10 17 30.63 1037 10 16 0.00 0.00

Powered by AerisWeather